Wind_Speed
1 2 2 2 2 1 1 2 3 3 3 4 4 5 5 5 5 5 6 6 6 6 6 6 6 5 5 5 5 6 5 4 5 5 6 5 4 4 5 5 5 6 7
2 2 2 2 2 2 2 3 3 4 4 4 5 6 7 6 7 7 7 7 7 7 8 8 7 6 6 6 6 7 7 6 6 6 6 6 6 6 6 6 7 7 8
3 3 3 3 3 3 3 4 4 5 5 5 5 6 6 7 7 7 8 8 8 9 9 9 9 8 8 8 8 7 8 8 8 7 7 7 7 7 6 6 7 7 8
4 4 4 4 4 5 5 5 6 6 6 6 7 7 7 7 7 8 9 9 9 9 10 10 10 10 9 9 8 8 9 9 9 8 8 8 8 8 7 7 7 7 8
5 5 5 5 6 6 6 6 6 7 7 8 8 8 7 7 8 8 9 9 9 9 10 10 10 11 11 10 10 9 9 10 10 10 10 9 9 9 9 9 9 9 9
5 5 5 6 6 6 7 7 8 8 8 8 8 8 8 8 8 9 9 9 10 10 10 10 10 10 11 11 10 10 11 10 11 11 11 11 11 10 11 11 10 10 10
6 6 6 6 7 7 7 8 9 9 9 9 10 9 9 9 9 9 9 10 10 10 10 10 10 10 11 11 11 11 11 11 11 11 11 12 11 12 12 12 12 12 12
6 6 7 8 8 9 9 9 10 10 10 10 10 10 10 10 10 10 10 11 11 11 11 11 11 11 10 10 11 11 11 11 11 12 12 12 12 12 12 13 13 13 12
7 7 8 8 9 9 9 9 10 10 10 10 10 10 10 11 11 11 11 11 11 11 11 11 11 11 11 11 11 11 11 11 11 12 12 13 13 13 13 12 13 13 13
7 7 8 8 8 8 8 9 9 10 10 10 10 11 11 11 11 11 10 11 11 11 11 11 11 11 11 12 12 12 13 12 12 12 12 13 13 13 13 12 12 12 13
7 8 8 8 8 8 9 9 9 9 10 10 10 11 11 10 10 10 10 10 11 11 11 12 12 12 12 13 13 13 13 13 13 13 13 13 13 13 13 13 13 13 13
7 8 7 8 8 8 9 9 9 9 10 10 10 10 10 10 10 11 11 11 11 11 12 12 12 13 13 14 13 13 14 14 13 12 13 13 13 14 14 14 14 14 14
7 8 8 8 9 10 10 10 9 9 9 9 10 10 10 10 11 11 11 11 11 12 12 12 13 13 14 14 13 13 14 14 13 13 13 12 13 14 14 14 15 15 15
8 9 9 9 10 9 9 9 9 9 9 9 10 10 10 11 10 10 10 11 11 12 12 12 12 13 13 14 14 14 14 14 14 14 13 13 13 13 14 14 15 14 14
10 10 9 9 9 9 9 9 9 9 9 9 10 11 11 10 11 10 10 11 11 11 12 12 12 13 13 14 14 14 14 14 14 14 14 14 14 14 14 15 15 14 14
9 10 10 10 9 9 9 9 9 9 9 10 10 10 11 11 11 11 11 11 11 11 11 12 12 12 13 13 13 13 13 14 15 14 14 14 14 14 14 14 14 14 14
9 9 10 9 9 9 9 9 9 9 10 10 10 11 11 11 11 11 11 11 11 12 12 12 12 12 12 12 12 13 13 14 14 14 14 14 14 14 14 14 14 14 14
10 10 10 9 9 9 9 9 9 10 10 10 10 11 11 10 11 11 11 11 11 12 12 12 12 12 12 12 13 14 14 15 15 14 14 14 14 15 15 15 15 15 15
10 10 10 9 9 9 9 9 9 9 10 10 11 11 11 11 11 11 11 11 12 12 12 12 13 13 13 13 13 14 14 15 15 15 14 14 14 14 15 16 16 16 15
10 10 9 9 9 9 9 9 9 9 9 9 10 11 11 11 11 11 12 12 13 13 13 13 13 13 13 13 14 14 14 14 15 14 14 14 14 14 15 15 15 16 16
10 10 10 10 10 10 9 9 9 9 10 10 10 11 11 11 11 11 12 12 13 13 13 13 13 13 13 13 13 14 14 14 14 14 14 14 14 14 15 15 15 16 17
10 10 10 11 11 11 10 10 10 10 10 10 10 11 11 11 11 11 12 12 13 13 13 13 13 12 13 13 13 13 13 13 14 14 14 14 14 14 15 15 15 16 16
11 11 11 11 11 11 11 11 11 11 11 10 10 11 11 11 11 12 12 12 13 13 13 13 13 13 13 13 13 13 13 13 13 13 14 14 14 14 14 15 15 16 16
11 12 11 11 11 11 11 11 11 11 11 11 11 11 12 12 12 12 13 13 13 13 13 13 14 14 14 13 13 13 13 13 13 14 14 14 14 14 15 16 16 16 16
12 12 12 11 12 12 11 11 11 11 11 11 12 12 12 12 13 13 13 13 14 13 14 14 14 13 13 13 13 13 13 13 13 13 14 15 15 15 15 16 17 17 18
13 13 13 13 12 12 12 12 12 12 12 12 12 13 13 13 13 14 14 14 14 14 14 14 14 14 14 14 14 14 14 14 14 14 14 15 15 16 16 17 18 18 17
Wind_Direction
262 236 235 248 275 285 242 241 243 253 255 255 265 264 267 274 270 267 262 266 264 267 266 263 264 257 253 252 253 252 250 251 254 254 253 254 250 242 240 243 243 234 227
264 245 239 247 260 269 256 254 257 251 255 262 264 264 263 266 266 266 267 269 265 266 271 271 267 265 263 258 257 258 255 255 256 256 258 262 257 252 245 249 248 239 232
268 262 258 266 270 269 270 270 266 257 257 261 263 267 269 271 270 267 269 273 269 264 266 268 263 263 264 265 265 263 259 261 261 262 263 262 256 254 252 255 249 244 240
273 271 266 269 272 272 268 269 272 265 264 262 267 271 273 273 271 271 270 272 271 267 268 270 264 261 263 265 264 264 262 266 267 265 262 260 258 258 257 264 255 252 247
274 276 274 272 274 277 273 267 269 269 270 269 269 270 272 274 276 277 273 270 271 272 270 271 269 262 264 266 267 267 267 268 269 264 261 259 259 260 261 261 257 255 251
280 283 282 277 276 274 270 268 267 268 270 271 269 268 271 270 271 273 272 271 271 273 272 273 274 270 268 268 268 266 264 265 266 264 262 259 257 258 259 258 257 258 253
282 285 286 282 281 278 274 271 268 269 269 270 270 271 271 271 271 272 274 274 274 274 275 272 270 272 271 267 267 265 264 264 262 260 259 258 257 258 259 259 258 256 254
282 284 284 284 281 277 274 272 271 273 273 273 272 270 271 273 274 275 276 274 274 275 277 275 274 272 272 269 267 265 263 264 263 261 260 259 258 260 262 260 257 254 251
284 285 286 284 280 277 274 273 273 273 274 272 271 269 270 274 275 275 275 273 273 272 273 275 275 273 270 268 267 264 261 263 263 262 261 261 260 261 262 259 256 254 253
291 287 287 286 281 279 276 275 273 273 275 274 273 270 271 273 275 274 273 273 272 273 273 275 274 274 270 268 266 263 262 263 263 261 260 260 262 262 262 261 258 256 254
291 289 286 287 284 279 276 276 274 274 275 276 275 273 274 273 275 275 275 275 274 275 276 276 274 271 269 269 268 265 262 264 264 262 259 260 262 264 264 262 260 258 256
292 293 290 287 286 284 280 277 276 274 276 276 276 275 275 276 277 277 276 277 277 277 279 279 276 272 270 269 267 267 266 265 267 265 262 261 262 263 262 260 258 257 255
289 291 291 290 289 286 282 277 272 273 274 275 276 277 276 277 276 276 276 277 279 281 283 282 279 274 270 268 266 266 265 264 265 265 265 264 263 261 261 259 257 256 255
287 291 289 289 291 287 282 276 272 271 271 272 276 276 276 277 277 277 278 279 281 282 283 283 281 278 273 270 268 266 265 264 265 265 264 265 265 264 261 260 258 255 253
290 293 292 293 293 288 284 281 274 269 270 272 274 276 278 278 278 277 278 281 282 282 282 282 282 279 277 274 269 266 264 266 267 266 266 266 266 264 261 259 257 253 253
293 293 293 292 290 287 282 279 275 273 275 279 279 277 277 276 277 278 278 281 282 284 285 283 283 280 278 275 273 270 267 266 265 265 266 267 264 262 258 255 254 254 254
289 292 293 293 289 287 283 277 275 275 277 281 282 281 278 276 277 277 280 280 281 282 284 284 283 279 278 275 272 271 270 266 265 266 265 265 264 260 259 257 253 253 252
289 291 294 294 289 286 284 283 280 278 277 279 283 284 281 280 278 278 281 280 282 283 284 285 285 282 278 275 274 275 273 270 267 267 266 265 264 260 258 257 253 250 251
289 291 294 292 287 286 282 282 283 282 281 281 282 284 285 284 280 278 280 280 284 285 283 283 285 283 279 273 271 273 272 271 268 266 265 263 264 261 257 255 252 250 250
288 292 292 289 289 287 283 281 281 281 283 286 285 284 284 282 281 279 280 284 288 289 286 284 283 282 279 275 273 272 272 271 268 267 263 262 263 261 255 251 251 251 251
289 291 291 287 286 286 285 282 281 282 284 287 288 286 282 281 282 281 281 283 289 291 291 289 285 284 279 277 273 272 271 269 268 266 265 264 263 262 256 251 250 249 248
283 287 288 289 289 285 284 284 284 286 286 287 286 285 280 280 279 281 283 285 288 291 291 292 290 286 282 278 276 275 275 272 270 267 266 265 264 263 258 252 251 251 251
278 282 286 286 286 286 282 281 283 285 288 287 285 285 280 278 280 283 285 287 288 289 290 289 288 288 285 280 277 276 275 275 271 269 266 264 264 263 257 253 255 255 255
277 279 282 282 280 283 280 278 280 284 285 286 286 285 282 281 282 283 283 286 287 287 286 288 289 289 285 279 276 274 272 273 272 269 268 263 262 261 258 257 257 257 256
278 280 280 281 280 276 275 277 279 282 282 283 285 284 281 280 283 284 284 284 284 285 285 288 291 289 286 281 278 274 271 271 271 269 267 265 263 263 260 259 257 258 259
277 279 278 277 274 273 274 275 278 280 281 282 283 283 283 283 283 283 283 283 284 285 286 287 289 287 284 281 277 274 270 270 270 268 266 266 266 265 263 260 258 258 260
Height
5873 5872 5873 5872 5872 5872 5872 5872 5872 5873 5873 5873 5873 5872 5872 5872 5872 5873 5873 5873 5873 5873 5873 5872 5872 5873 5873 5873 5874 5874 5874 5873 5873 5873 5873 5873 5873 5873 5873 5873 5873 5874 5874
5873 5872 5872 5872 5872 5872 5872 5872 5872 5872 5872 5872 5872 5872 5871 5872 5872 5872 5872 5872 5872 5872 5872 5872 5872 5872 5872 5872 5872 5872 5873 5872 5872 5872 5873 5872 5872 5872 5872 5872 5872 5873 5873
5872 5872 5872 5871 5871 5871 5872 5872 5872 5872 5871 5871 5871 5871 5871 5870 5871 5871 5871 5871 5871 5870 5870 5870 5870 5870 5871 5871 5871 5871 5871 5871 5871 5871 5871 5871 5871 5871 5871 5871 5871 5871 5871
5871 5871 5871 5871 5871 5871 5871 5871 5871 5871 5870 5870 5870 5870 5870 5870 5869 5869 5869 5869 5869 5869 5869 5869 5869 5869 5869 5869 5869 5869 5869 5869 5869 5870 5870 5870 5870 5870 5870 5870 5870 5870 5870
5870 5870 5869 5869 5869 5869 5869 5869 5870 5869 5869 5869 5869 5869 5868 5868 5868 5868 5868 5867 5867 5867 5867 5867 5867 5867 5867 5867 5867 5867 5867 5867 5867 5868 5868 5868 5868 5868 5868 5868 5868 5869 5869
5869 5868 5868 5868 5868 5868 5868 5868 5868 5868 5868 5868 5867 5867 5867 5867 5866 5866 5866 5866 5865 5865 5865 5865 5865 5865 5865 5865 5865 5865 5865 5866 5866 5866 5866 5866 5866 5866 5866 5866 5866 5867 5867
5867 5867 5867 5867 5866 5866 5866 5866 5866 5866 5866 5866 5866 5865 5865 5865 5865 5864 5864 5864 5864 5863 5863 5863 5863 5863 5862 5863 5863 5863 5863 5863 5863 5863 5863 5863 5864 5864 5864 5864 5864 5864 5864
5866 5866 5865 5865 5865 5865 5864 5864 5864 5864 5864 5864 5863 5863 5863 5863 5863 5862 5862 5862 5861 5861 5861 5860 5860 5860 5860 5860 5860 5860 5861 5861 5861 5861 5861 5861 5861 5861 5861 5861 5861 5862 5862
5864 5864 5864 5864 5863 5863 5863 5862 5862 5862 5862 5861 5861 5861 5861 5861 5860 5860 5860 5859 5859 5859 5858 5858 5858 5857 5858 5858 5858 5858 5858 5858 5858 5858 5858 5858 5858 5858 5858 5858 5859 5859 5859
5863 5863 5862 5862 5861 5861 5860 5860 5860 5860 5859 5859 5859 5859 5859 5858 5858 5858 5857 5857 5857 5856 5856 5856 5855 5855 5855 5855 5855 5855 5855 5855 5855 5855 5855 5855 5855 5855 5855 5855 5856 5856 5856
5861 5861 5860 5860 5859 5859 5858 5858 5858 5857 5857 5857 5857 5857 5856 5856 5856 5855 5855 5854 5854 5854 5853 5853 5852 5852 5852 5852 5852 5852 5852 5852 5852 5852 5852 5852 5852 5852 5852 5852 5853 5853 5853
5860 5859 5858 5858 5857 5857 5856 5856 5855 5855 5855 5855 5854 5854 5854 5853 5853 5853 5852 5852 5851 5851 5850 5850 5850 5849 5849 5849 5849 5849 5848 5848 5849 5849 5849 5849 5849 5849 5849 5849 5850 5850 5850
5858 5857 5856 5856 5855 5854 5854 5853 5853 5853 5852 5852 5852 5851 5851 5851 5850 5850 5850 5849 5849 5848 5848 5847 5846 5846 5846 5845 5846 5845 5845 5845 5845 5846 5846 5846 5845 5846 5846 5846 5846 5847 5847
5856 5855 5854 5853 5853 5852 5851 5851 5850 5850 5850 5850 5849 5849 5848 5848 5848 5847 5847 5846 5846 5845 5845 5844 5844 5843 5843 5842 5842 5842 5842 5842 5842 5842 5842 5842 5842 5842 5842 5843 5843 5843 5844
5853 5853 5852 5851 5850 5849 5849 5848 5848 5848 5847 5847 5847 5846 5846 5845 5845 5844 5844 5843 5843 5842 5842 5841 5841 5840 5839 5839 5839 5839 5839 5838 5838 5839 5839 5839 5839 5839 5839 5839 5839 5840 5841
5851 5850 5849 5848 5848 5847 5846 5846 5845 5845 5844 5844 5844 5843 5843 5842 5842 5842 5841 5841 5840 5839 5839 5838 5837 5837 5836 5836 5835 5835 5835 5835 5835 5835 5835 5835 5835 5835 5835 5835 5836 5836 5837
5848 5847 5847 5846 5845 5844 5844 5843 5843 5842 5842 5841 5841 5840 5840 5839 5839 5839 5838 5838 5837 5836 5836 5835 5834 5833 5833 5832 5832 5831 5831 5831 5831 5831 5831 5832 5832 5832 5832 5832 5832 5833 5834
5845 5845 5844 5843 5842 5842 5841 5841 5840 5840 5839 5839 5838 5837 5837 5836 5836 5836 5835 5835 5834 5833 5833 5832 5831 5830 5830 5829 5828 5828 5828 5827 5827 5827 5827 5828 5828 5828 5828 5829 5829 5830 5830
5843 5842 5841 5840 5840 5839 5839 5838 5838 5837 5837 5836 5835 5835 5834 5833 5833 5833 5832 5832 5831 5830 5829 5828 5828 5827 5826 5825 5825 5824 5824 5823 5823 5823 5824 5824 5824 5824 5824 5825 5825 5826 5827
5840 5839 5838 5838 5837 5836 5836 5836 5835 5835 5834 5833 5832 5832 5831 5831 5830 5830 5829 5828 5828 5827 5826 5825 5824 5823 5823 5822 5821 5821 5820 5820 5819 5819 5819 5820 5820 5820 5820 5821 5821 5822 5823
5837 5837 5836 5835 5835 5834 5833 5833 5832 5831 5831 5830 5830 5829 5828 5828 5827 5827 5826 5825 5824 5824 5823 5822 5821 5820 5819 5818 5818 5817 5816 5816 5816 5816 5815 5816 5816 5816 5816 5817 5817 5818 5818
5834 5833 5833 5833 5832 5831 5831 5830 5829 5829 5828 5828 5827 5826 5825 5825 5824 5824 5823 5822 5821 5820 5819 5818 5817 5816 5815 5815 5814 5813 5813 5813 5812 5812 5811 5812 5812 5812 5812 5813 5813 5814 5814
5831 5830 5830 5829 5829 5828 5827 5827 5826 5826 5825 5824 5824 5823 5822 5822 5821 5820 5820 5819 5818 5817 5816 5815 5814 5813 5812 5811 5810 5810 5809 5809 5808 5808 5808 5808 5808 5808 5808 5808 5809 5810 5811
5827 5827 5827 5826 5825 5825 5824 5824 5823 5823 5822 5821 5821 5820 5819 5818 5818 5817 5816 5815 5814 5813 5812 5811 5810 5809 5808 5807 5806 5806 5806 5805 5805 5804 5804 5804 5804 5804 5804 5804 5805 5806 5807
5824 5823 5823 5822 5822 5821 5821 5820 5820 5819 5819 5818 5817 5817 5816 5815 5814 5813 5812 5811 5810 5809 5808 5807 5806 5805 5804 5803 5802 5802 5801 5801 5801 5800 5800 5800 5800 5800 5800 5800 5801 5801 5802
5820 5819 5819 5818 5818 5817 5817 5817 5816 5816 5815 5815 5814 5813 5812 5812 5811 5810 5808 5807 5806 5805 5804 5803 5802 5801 5800 5799 5798 5798 5797 5797 5796 5796 5796 5795 5795 5795 5795 5796 5796 5797 5797